Time,TemperatureF,DewpointF,PressureIn,WindDirection,WindDirectionDegrees,WindSpeedMPH,WindSpeedGustMPH,Humidity,HourlyPrecipIn,Conditions,Clouds,dailyrainin,SoftwareType,DateUTC
2013-02-11 00:11:00,17.6,17.1,30.12,ESE,112,1.1,-999.0,98,-99.99,,,0.00,Acu-Link.com,2013-02-11 05:11:00,
2013-02-11 00:26:00,17.6,17.1,30.10,West,270,0.0,-999.0,98,-99.99,,,0.00,Acu-Link.com,2013-02-11 05:26:00,
2013-02-11 00:42:00,17.6,17.1,30.08,ESE,112,0.0,-999.0,98,-99.99,,,0.00,Acu-Link.com,2013-02-11 05:42:00,
2013-02-11 00:57:00,19.4,18.9,30.08,NW,315,0.0,-999.0,98,-99.99,,,0.00,Acu-Link.com,2013-02-11 05:57:00,
2013-02-11 01:12:00,19.4,18.9,30.08,NE,45,0.0,-999.0,98,-99.99,,,0.00,Acu-Link.com,2013-02-11 06:12:00,
2013-02-11 01:27:00,19.4,18.9,30.07,NW,315,0.0,-999.0,98,-99.99,,,0.00,Acu-Link.com,2013-02-11 06:27:00,
2013-02-11 01:43:00,19.4,18.9,30.06,East,90,0.0,-999.0,98,-99.99,,,0.00,Acu-Link.com,2013-02-11 06:43:00,
2013-02-11 01:58:00,19.4,18.9,30.05,NW,315,0.0,-999.0,98,-99.99,,,0.00,Acu-Link.com,2013-02-11 06:58:00,
2013-02-11 02:13:00,19.4,18.9,30.04,NE,45,0.0,-999.0,98,-99.99,,,0.00,Acu-Link.com,2013-02-11 07:13:00,
2013-02-11 02:29:00,19.4,18.9,30.04,East,90,0.0,-999.0,98,-99.99,,,0.00,Acu-Link.com,2013-02-11 07:29:00,
2013-02-11 02:44:00,19.4,18.9,30.03,WNW,292,0.0,-999.0,98,-99.99,,,0.00,Acu-Link.com,2013-02-11 07:44:00,
2013-02-11 02:59:00,21.2,20.7,30.03,SSW,202,0.0,-999.0,98,-99.99,,,0.00,Acu-Link.com,2013-02-11 07:59:00,
2013-02-11 03:15:00,23.0,22.5,30.00,WSW,247,4.7,-999.0,98,-99.99,,,0.00,Acu-Link.com,2013-02-11 08:15:00,
2013-02-11 03:30:00,28.4,27.9,29.99,SW,225,4.0,-999.0,98,-99.99,,,0.00,Acu-Link.com,2013-02-11 08:30:00,
2013-02-11 03:45:00,30.2,29.7,29.99,SSW,202,4.0,-999.0,98,-99.99,,,0.00,Acu-Link.com,2013-02-11 08:45:00,
2013-02-11 04:01:00,30.2,29.7,29.97,South,180,6.7,-999.0,98,-99.99,,,0.00,Acu-Link.com,2013-02-11 09:01:00,
2013-02-11 04:17:00,30.2,29.7,29.97,SE,135,6.3,-999.0,98,-99.99,,,0.00,Acu-Link.com,2013-02-11 09:17:00,
2013-02-11 04:32:00,32.0,31.5,29.97,South,180,7.2,-999.0,98,-99.99,,,0.00,Acu-Link.com,2013-02-11 09:32:00,
2013-02-11 04:47:00,32.0,31.5,29.96,ESE,112,8.7,-999.0,98,-99.99,,,0.00,Acu-Link.com,2013-02-11 09:47:00,
2013-02-11 05:02:00,32.0,31.5,29.96,SSE,157,4.7,-999.0,98,-99.99,,,0.00,Acu-Link.com,2013-02-11 10:02:00,
2013-02-11 05:18:00,32.0,31.5,29.96,WNW,292,6.3,-999.0,98,-99.99,,,0.00,Acu-Link.com,2013-02-11 10:18:00,
2013-02-11 05:33:00,32.0,31.5,29.94,ESE,112,7.2,-999.0,98,-99.99,,,0.00,Acu-Link.com,2013-02-11 10:33:00,
2013-02-11 05:48:00,32.0,31.5,29.92,South,180,8.7,-999.0,98,-99.99,,,0.00,Acu-Link.com,2013-02-11 10:48:00,
2013-02-11 06:03:00,32.0,31.5,29.91,West,270,9.2,-999.0,98,-99.99,,,0.00,Acu-Link.com,2013-02-11 11:03:00,
2013-02-11 06:18:00,32.0,31.5,29.91,SE,135,4.7,-999.0,98,-99.99,,,0.00,Acu-Link.com,2013-02-11 11:18:00,
2013-02-11 06:34:00,33.8,33.3,29.91,SSW,202,5.6,-999.0,98,-99.99,,,0.00,Acu-Link.com,2013-02-11 11:34:00,
2013-02-11 06:49:00,33.8,33.3,29.89,SW,225,6.7,-999.0,98,-99.99,,,0.00,Acu-Link.com,2013-02-11 11:49:00,
2013-02-11 07:04:00,33.8,33.3,29.89,West,270,11.9,-999.0,98,-99.99,,,0.00,Acu-Link.com,2013-02-11 12:04:00,
2013-02-11 07:19:00,32.0,31.5,29.88,SSW,202,2.7,-999.0,98,-99.99,,,0.00,Acu-Link.com,2013-02-11 12:19:00,
2013-02-11 07:34:00,32.0,31.5,29.87,South,180,3.6,-999.0,98,-99.99,,,0.00,Acu-Link.com,2013-02-11 12:34:00,
2013-02-11 07:50:00,32.0,31.5,29.86,SSW,202,9.8,-999.0,98,-99.99,,,0.00,Acu-Link.com,2013-02-11 12:50:00,
2013-02-11 08:05:00,32.0,31.5,29.86,SSE,157,8.3,-999.0,98,-99.99,,,0.00,Acu-Link.com,2013-02-11 13:05:00,
2013-02-11 08:20:00,32.0,31.5,29.85,SSE,157,6.3,-999.0,98,-99.99,,,0.00,Acu-Link.com,2013-02-11 13:20:00,
2013-02-11 08:35:00,32.0,31.5,29.84,ESE,112,3.6,-999.0,98,-99.99,,,0.00,Acu-Link.com,2013-02-11 13:35:00,
2013-02-11 08:51:00,32.0,31.5,29.83,SE,135,8.7,-999.0,98,-99.99,,,0.00,Acu-Link.com,2013-02-11 13:51:00,
2013-02-11 09:06:00,32.0,31.5,29.81,SSW,202,8.7,-999.0,98,-99.99,,,0.00,Acu-Link.com,2013-02-11 14:06:00,
2013-02-11 09:21:00,32.0,31.5,29.80,SSW,202,10.7,-999.0,98,-99.99,,,0.00,Acu-Link.com,2013-02-11 14:21:00,
2013-02-11 09:36:00,32.0,31.5,29.79,South,180,8.3,-999.0,98,-99.99,,,0.00,Acu-Link.com,2013-02-11 14:36:00,
2013-02-11 09:51:00,32.0,31.5,29.78,SSW,202,4.7,-999.0,98,-99.99,,,0.00,Acu-Link.com,2013-02-11 14:51:00,
2013-02-11 10:06:00,33.8,33.3,29.77,SSE,157,4.7,-999.0,98,-99.99,,,0.00,Acu-Link.com,2013-02-11 15:06:00,
2013-02-11 10:21:00,33.8,33.3,29.76,SSE,157,10.7,-999.0,98,-99.99,,,0.00,Acu-Link.com,2013-02-11 15:21:00,
2013-02-11 10:37:00,33.8,33.3,29.74,South,180,5.6,-999.0,98,-99.99,,,0.00,Acu-Link.com,2013-02-11 15:37:00,
2013-02-11 10:52:00,35.6,35.1,29.72,South,180,7.8,-999.0,98,-99.99,,,0.00,Acu-Link.com,2013-02-11 15:52:00,
2013-02-11 11:07:00,33.8,33.3,29.73,SSW,202,4.7,-999.0,98,-99.99,,,0.01,Acu-Link.com,2013-02-11 16:07:00,
2013-02-11 11:22:00,35.6,35.1,29.71,SSE,157,4.0,-999.0,98,-99.99,,,0.01,Acu-Link.com,2013-02-11 16:22:00,
2013-02-11 11:38:00,35.6,35.1,29.70,West,270,3.6,-999.0,98,-99.99,,,0.01,Acu-Link.com,2013-02-11 16:38:00,
2013-02-11 11:53:00,37.4,36.9,29.70,South,180,5.6,-999.0,98,-99.99,,,0.01,Acu-Link.com,2013-02-11 16:53:00,
2013-02-11 12:08:00,37.4,36.9,29.69,SSW,202,8.7,-999.0,98,-99.99,,,0.02,Acu-Link.com,2013-02-11 17:08:00,
2013-02-11 12:23:00,39.2,38.7,29.67,ESE,112,3.6,-999.0,98,-99.99,,,0.04,Acu-Link.com,2013-02-11 17:23:00,
2013-02-11 12:38:00,39.2,38.7,29.64,SW,225,4.7,-999.0,98,-99.99,,,0.09,Acu-Link.com,2013-02-11 17:38:00,
2013-02-11 12:54:00,41.0,40.5,29.64,ESE,112,3.6,-999.0,98,-99.99,,,0.13,Acu-Link.com,2013-02-11 17:54:00,
2013-02-11 13:09:00,39.2,38.7,29.63,SW,225,4.0,-999.0,98,-99.99,,,0.15,Acu-Link.com,2013-02-11 18:09:00,
2013-02-11 13:24:00,41.0,40.5,29.62,SSW,202,3.1,-999.0,98,-99.99,,,0.17,Acu-Link.com,2013-02-11 18:24:00,
2013-02-11 13:40:00,41.0,40.5,29.60,SSW,202,2.7,-999.0,98,-99.99,,,0.20,Acu-Link.com,2013-02-11 18:40:00,
2013-02-11 13:55:00,41.0,40.5,29.59,South,180,5.1,-999.0,98,-99.99,,,0.20,Acu-Link.com,2013-02-11 18:55:00,
2013-02-11 14:10:00,41.0,40.5,29.58,South,180,6.7,-999.0,98,-99.99,,,0.21,Acu-Link.com,2013-02-11 19:10:00,
2013-02-11 14:25:00,41.0,40.5,29.56,ESE,112,3.6,-999.0,98,-99.99,,,0.21,Acu-Link.com,2013-02-11 19:25:00,
2013-02-11 14:41:00,41.0,40.5,29.55,SW,225,3.6,-999.0,98,-99.99,,,0.22,Acu-Link.com,2013-02-11 19:41:00,
2013-02-11 14:56:00,41.0,40.5,29.56,ESE,112,6.7,-999.0,98,-99.99,,,0.22,Acu-Link.com,2013-02-11 19:56:00,
2013-02-11 15:11:00,41.0,40.5,29.56,SW,225,3.6,-999.0,98,-99.99,,,0.22,Acu-Link.com,2013-02-11 20:11:00,
2013-02-11 15:26:00,39.2,38.7,29.57,SW,225,4.0,-999.0,98,-99.99,,,0.22,Acu-Link.com,2013-02-11 20:26:00,
2013-02-11 15:42:00,41.0,40.5,29.55,SSE,157,4.7,-999.0,98,-99.99,,,0.22,Acu-Link.com,2013-02-11 20:42:00,
2013-02-11 15:57:00,41.0,40.5,29.55,ESE,112,3.6,-999.0,98,-99.99,,,0.22,Acu-Link.com,2013-02-11 20:57:00,
2013-02-11 16:12:00,41.0,40.5,29.53,SW,225,4.0,-999.0,98,-99.99,,,0.22,Acu-Link.com,2013-02-11 21:12:00,
2013-02-11 16:28:00,41.0,40.5,29.53,SSW,202,4.0,-999.0,98,-99.99,,,0.22,Acu-Link.com,2013-02-11 21:28:00,
2013-02-11 16:43:00,39.2,38.7,29.52,SW,225,2.7,-999.0,98,-99.99,,,0.22,Acu-Link.com,2013-02-11 21:43:00,
2013-02-11 16:58:00,39.2,38.7,29.52,SSE,157,5.6,-999.0,98,-99.99,,,0.22,Acu-Link.com,2013-02-11 21:58:00,
2013-02-11 17:14:00,39.2,38.7,29.51,SSE,157,2.7,-999.0,98,-99.99,,,0.22,Acu-Link.com,2013-02-11 22:14:00,
2013-02-11 17:29:00,39.2,38.7,29.51,SW,225,4.7,-999.0,98,-99.99,,,0.22,Acu-Link.com,2013-02-11 22:29:00,
2013-02-11 17:44:00,37.4,36.9,29.50,East,90,5.6,-999.0,98,-99.99,,,0.22,Acu-Link.com,2013-02-11 22:44:00,
2013-02-11 18:00:00,37.4,36.9,29.50,South,180,4.7,-999.0,98,-99.99,,,0.22,Acu-Link.com,2013-02-11 23:00:00,
2013-02-11 18:15:00,37.4,36.9,29.50,SW,225,3.1,-999.0,98,-99.99,,,0.22,Acu-Link.com,2013-02-11 23:15:00,
2013-02-11 18:30:00,37.4,36.9,29.50,SSW,202,3.1,-999.0,98,-99.99,,,0.22,Acu-Link.com,2013-02-11 23:30:00,
2013-02-11 18:45:00,37.4,36.9,29.50,West,270,4.7,-999.0,98,-99.99,,,0.22,Acu-Link.com,2013-02-11 23:45:00,
2013-02-11 19:01:00,37.4,36.9,29.52,WSW,247,2.7,-999.0,98,-99.99,,,0.22,Acu-Link.com,2013-02-12 00:01:00,
2013-02-11 19:16:00,37.4,36.9,29.51,SSW,202,3.6,-999.0,98,-99.99,,,0.22,Acu-Link.com,2013-02-12 00:16:00,
2013-02-11 19:31:00,37.4,36.9,29.50,SSE,157,3.6,-999.0,98,-99.99,,,0.22,Acu-Link.com,2013-02-12 00:31:00,
2013-02-11 19:47:00,37.4,36.9,29.50,SSW,202,2.0,-999.0,98,-99.99,,,0.22,Acu-Link.com,2013-02-12 00:47:00,
2013-02-11 20:02:00,37.4,36.9,29.51,SSE,157,0.0,-999.0,98,-99.99,,,0.22,Acu-Link.com,2013-02-12 01:02:00,
2013-02-11 20:17:00,37.4,36.9,29.51,SSW,202,1.6,-999.0,98,-99.99,,,0.22,Acu-Link.com,2013-02-12 01:17:00,
2013-02-11 20:33:00,37.4,36.9,29.51,West,270,0.0,-999.0,98,-99.99,,,0.22,Acu-Link.com,2013-02-12 01:33:00,
2013-02-11 20:48:00,37.4,36.9,29.56,ENE,67,4.0,-999.0,98,-99.99,,,0.22,Acu-Link.com,2013-02-12 01:48:00,
2013-02-11 21:03:00,37.4,36.9,29.55,WNW,292,1.1,-999.0,98,-99.99,,,0.22,Acu-Link.com,2013-02-12 02:03:00,
2013-02-11 21:18:00,37.4,36.9,29.56,North,0,2.7,-999.0,98,-99.99,,,0.22,Acu-Link.com,2013-02-12 02:18:00,
2013-02-11 21:33:00,37.4,36.9,29.55,ESE,112,3.6,-999.0,98,-99.99,,,0.22,Acu-Link.com,2013-02-12 02:33:00,
2013-02-11 21:49:00,37.4,36.9,29.55,NW,315,5.6,-999.0,98,-99.99,,,0.24,Acu-Link.com,2013-02-12 02:49:00,
2013-02-11 22:04:00,37.4,36.9,29.55,NNE,22,4.0,-999.0,98,-99.99,,,0.24,Acu-Link.com,2013-02-12 03:04:00,
2013-02-11 22:19:00,37.4,36.9,29.55,West,270,3.6,-999.0,98,-99.99,,,0.24,Acu-Link.com,2013-02-12 03:19:00,
2013-02-11 22:34:00,35.6,35.1,29.55,South,180,1.6,-999.0,98,-99.99,,,0.24,Acu-Link.com,2013-02-12 03:34:00,
2013-02-11 22:50:00,35.6,35.1,29.54,East,90,1.6,-999.0,98,-99.99,,,0.24,Acu-Link.com,2013-02-12 03:50:00,
2013-02-11 23:05:00,35.6,35.1,29.54,ESE,112,3.6,-999.0,98,-99.99,,,0.24,Acu-Link.com,2013-02-12 04:05:00,
2013-02-11 23:20:00,35.6,35.1,29.53,NNW,337,0.0,-999.0,98,-99.99,,,0.24,Acu-Link.com,2013-02-12 04:20:00,
2013-02-11 23:36:00,35.6,35.1,29.54,East,90,0.0,-999.0,98,-99.99,,,0.24,Acu-Link.com,2013-02-12 04:36:00,
2013-02-11 23:51:00,33.8,33.3,29.54,West,270,0.0,-999.0,98,-99.99,,,0.24,Acu-Link.com,2013-02-12 04:51:00,